Schneifelwetter: Wetterstation Hallschlag, 537 m . NN
Wetterdaten: Donnerstag, 26.03.2009
Datum Zeit Temp. A. Temp. 2 Feuchte A. Luftdruck Regen Wind Richtung Richtung Sonnenschein Helligkeit T Regen Taupunkt Windchill
26.03.2009 00:09 1,0 C 0,9 C 96 % 1002 hPa 0,0 l/m 22,4 km/h (4 Bft) W22.5 260 0 min 0 lux 0,00 min 0,4 C -9,4 C
26.03.2009 00:24 1,1 C 1,1 C 96 % 1003 hPa 0,0 l/m 18,6 km/h (3 Bft) W22.5 265 0 min 0 lux 0,00 min 0,5 C -7,6 C
26.03.2009 00:39 1,2 C 1,1 C 96 % 1003 hPa 0,0 l/m 27,0 km/h (4 Bft) W22.5 265 0 min 0 lux 0,00 min 0,6 C -10,8 C
26.03.2009 00:54 1,2 C 1,2 C 96 % 1003 hPa 0,0 l/m 23,0 km/h (4 Bft) W22.5 270 0 min 0 lux 0,00 min 0,6 C -9,3 C
26.03.2009 01:08 1,2 C 1,2 C 96 % 1003 hPa 0,0 l/m 20,9 km/h (4 Bft) W45 260 0 min 0 lux 0,00 min 0,6 C -8,5 C
26.03.2009 01:23 1,2 C 1,2 C 96 % 1003 hPa 0,0 l/m 26,6 km/h (4 Bft) W22.5 265 0 min 0 lux 0,00 min 0,6 C -10,6 C
26.03.2009 01:38 1,2 C 1,3 C 96 % 1003 hPa 0,0 l/m 20,2 km/h (4 Bft) W-SW22.5 255 0 min 0 lux 0,00 min 0,6 C -8,2 C
26.03.2009 01:53 1,2 C 1,3 C 96 % 1004 hPa 0,0 l/m 23,6 km/h (4 Bft) W-SW45 255 0 min 0 lux 0,00 min 0,6 C -9,6 C
26.03.2009 02:08 1,2 C 1,4 C 96 % 1004 hPa 0,0 l/m 23,1 km/h (4 Bft) W45 265 0 min 0 lux 0,00 min 0,6 C -9,4 C
26.03.2009 02:23 1,1 C 1,4 C 96 % 1004 hPa 0,0 l/m 17,0 km/h (3 Bft) W22.5 265 0 min 0 lux 0,00 min 0,5 C -6,8 C
26.03.2009 02:38 1,2 C 1,4 C 97 % 1004 hPa 0,0 l/m 22,5 km/h (4 Bft) W22.5 260 0 min 0 lux 0,00 min 0,8 C -9,1 C
26.03.2009 02:53 1,2 C 1,4 C 97 % 1004 hPa 0,0 l/m 19,4 km/h (3 Bft) W22.5 260 0 min 0 lux 0,00 min 0,8 C -7,8 C
26.03.2009 03:08 1,2 C 1,4 C 97 % 1004 hPa 0,0 l/m 20,1 km/h (4 Bft) W22.5 260 0 min 0 lux 0,00 min 0,8 C -8,1 C
26.03.2009 03:23 1,1 C 1,2 C 97 % 1004 hPa 0,0 l/m 19,9 km/h (4 Bft) W22.5 260 0 min 0 lux 0,00 min 0,7 C -8,2 C
26.03.2009 03:38 1,0 C 1,0 C 97 % 1004 hPa 0,0 l/m 21,6 km/h (4 Bft) W22.5 260 0 min 0 lux 0,00 min 0,6 C -9,0 C
26.03.2009 03:53 0,8 C 0,7 C 97 % 1005 hPa 0,0 l/m 16,1 km/h (3 Bft) W22.5 265 0 min 0 lux 0,00 min 0,4 C -6,6 C
26.03.2009 04:08 0,6 C 0,5 C 97 % 1004 hPa 0,0 l/m 11,6 km/h (2 Bft) W22.5 260 0 min 0 lux 0,00 min 0,2 C -4,0 C
26.03.2009 04:23 0,6 C 0,7 C 97 % 1005 hPa 0,0 l/m 12,3 km/h (3 Bft) W22.5 260 0 min 0 lux 0,00 min 0,2 C -4,5 C
26.03.2009 04:38 0,7 C 0,8 C 97 % 1005 hPa 0,0 l/m 16,1 km/h (3 Bft) W-SW22.5 250 0 min 0 lux 0,00 min 0,3 C -6,8 C
26.03.2009 04:53 0,7 C 0,8 C 98 % 1005 hPa 0,0 l/m 15,2 km/h (3 Bft) W-SW 250 0 min 0 lux 0,00 min 0,4 C -6,3 C
26.03.2009 05:08 0,7 C 0,9 C 98 % 1005 hPa 0,0 l/m 12,6 km/h (3 Bft) W-SW45 250 0 min 0 lux 0,00 min 0,4 C -4,6 C
26.03.2009 05:23 0,7 C 0,9 C 98 % 1005 hPa 0,0 l/m 14,5 km/h (3 Bft) W-SW45 240 0 min 0 lux 0,00 min 0,4 C -5,8 C
26.03.2009 05:38 0,7 C 0,9 C 98 % 1005 hPa 0,0 l/m 17,4 km/h (3 Bft) W-SW22.5 255 0 min 0 lux 0,00 min 0,4 C -7,5 C
26.03.2009 05:53 0,7 C 0,9 C 98 % 1005 hPa 0,0 l/m 19,2 km/h (3 Bft) W-SW22.5 250 0 min 0 lux 0,00 min 0,4 C -8,4 C
26.03.2009 06:08 0,7 C 1,0 C 98 % 1005 hPa 0,0 l/m 18,3 km/h (3 Bft) W-SW22.5 255 0 min 76 lux 0,00 min 0,4 C -7,9 C
26.03.2009 06:23 0,9 C 0,9 C 98 % 1005 hPa 0,0 l/m 14,0 km/h (3 Bft) W-SW22.5 250 0 min 335 lux 0,00 min 0,6 C -5,3 C
26.03.2009 06:38 0,9 C 1,0 C 99 % 1005 hPa 0,0 l/m 16,4 km/h (3 Bft) SW22.5 235 0 min 580 lux 0,00 min 0,8 C -6,7 C
26.03.2009 06:53 1,0 C 1,2 C 99 % 1005 hPa 0,0 l/m 14,5 km/h (3 Bft) SW22.5 235 0 min 992 lux 0,00 min 0,9 C -5,5 C
26.03.2009 07:08 1,2 C 1,3 C 99 % 1005 hPa 0,0 l/m 19,1 km/h (3 Bft) SW45 235 0 min 2,33 klux 0,00 min 1,1 C -7,7 C
26.03.2009 07:23 1,4 C 1,5 C 99 % 1005 hPa 0,0 l/m 19,6 km/h (3 Bft) W-SW45 240 0 min 3,40 klux 0,00 min 1,3 C -7,6 C
26.03.2009 07:38 1,5 C 1,5 C 99 % 1005 hPa 0,0 l/m 19,6 km/h (3 Bft) W-SW45 240 0 min 3,87 klux 0,00 min 1,4 C -7,5 C
26.03.2009 07:59 1,7 C 1,8 C 99 % 1005 hPa 0,0 l/m 16,1 km/h (3 Bft) W-SW45 250 0 min 9,8 klux 0,00 min 1,6 C -5,5 C
26.03.2009 08:15 1,8 C 1,9 C 99 % 1005 hPa 0,0 l/m 21,8 km/h (4 Bft) W-SW22.5 240 0 min 7,15 klux 0,00 min 1,7 C -8,1 C
26.03.2009 08:29 1,9 C 1,9 C 99 % 1005 hPa 0,0 l/m 14,5 km/h (3 Bft) SW22.5 235 0 min 7,43 klux 0,00 min 1,8 C -4,4 C
26.03.2009 08:44 2,3 C 1,9 C 99 % 1006 hPa 0,0 l/m 18,0 km/h (3 Bft) W-SW22.5 245 0 min 17,7 klux 0,00 min 2,2 C -5,7 C
26.03.2009 08:59 2,8 C 2,7 C 99 % 1006 hPa 0,0 l/m 17,3 km/h (3 Bft) W-SW22.5 245 0 min 33,3 klux 0,00 min 2,7 C -4,8 C
26.03.2009 09:14 3,2 C 3,4 C 99 % 1006 hPa 0,0 l/m 18,0 km/h (3 Bft) SW45 230 0 min 25,3 klux 0,00 min 3,1 C -4,6 C
26.03.2009 09:29 3,1 C 3,4 C 98 % 1006 hPa 0,0 l/m 27,8 km/h (4 Bft) W-SW22.5 255 0 min 15,4 klux 0,00 min 2,8 C -8,4 C
26.03.2009 09:44 2,9 C 3,3 C 98 % 1006 hPa 0,0 l/m 26,5 km/h (4 Bft) W-SW22.5 250 0 min 15,0 klux 0,00 min 2,6 C -8,3 C
26.03.2009 10:00 3,0 C 3,2 C 97 % 1006 hPa 0,0 l/m 28,8 km/h (4 Bft) W-SW22.5 250 0 min 17,1 klux 0,00 min 2,6 C -8,8 C
26.03.2009 10:15 3,3 C 3,3 C 97 % 1006 hPa 0,0 l/m 27,6 km/h (4 Bft) W-SW22.5 240 0 min 23,4 klux 0,00 min 2,9 C -8,1 C
26.03.2009 10:29 3,6 C 3,4 C 96 % 1005 hPa 0,0 l/m 36,5 km/h (5 Bft) W-SW22.5 245 0 min 28,2 klux 0,00 min 3,0 C -9,9 C
26.03.2009 10:44 3,7 C 3,6 C 96 % 1006 hPa 0,0 l/m 27,1 km/h (4 Bft) W-SW67.5 250 0 min 26,5 klux 0,00 min 3,1 C -7,4 C
26.03.2009 10:59 3,6 C 3,6 C 95 % 1005 hPa 0,0 l/m 27,9 km/h (4 Bft) W-SW45 240 0 min 20,2 klux 0,00 min 2,9 C -7,7 C
26.03.2009 11:14 3,7 C 3,5 C 95 % 1005 hPa 0,0 l/m 27,9 km/h (4 Bft) SW45 225 0 min 26,3 klux 0,00 min 3,0 C -7,6 C
26.03.2009 11:29 4,1 C 4,1 C 94 % 1005 hPa 0,0 l/m 28,9 km/h (5 Bft) W-SW45 240 0 min 34,1 klux 0,00 min 3,2 C -7,3 C
26.03.2009 11:45 4,2 C 4,0 C 94 % 1005 hPa 0,0 l/m 28,8 km/h (4 Bft) W-SW45 240 0 min 28,1 klux 0,00 min 3,3 C -7,2 C
26.03.2009 11:59 4,1 C 3,7 C 93 % 1005 hPa 0,0 l/m 37,8 km/h (5 Bft) W-SW22.5 240 0 min 22,0 klux 0,00 min 3,1 C -9,4 C
26.03.2009 12:14 3,9 C 3,7 C 94 % 1005 hPa 0,0 l/m 27,6 km/h (4 Bft) SW45 230 0 min 27,8 klux 0,00 min 3,0 C -7,2 C
26.03.2009 12:29 4,0 C 3,7 C 93 % 1005 hPa 0,3 l/m 29,0 km/h (5 Bft) SW45 235 0 min 29,8 klux 15,00 min 3,0 C -7,5 C
26.03.2009 12:44 3,9 C 3,6 C 93 % 1004 hPa 0,0 l/m 31,7 km/h (5 Bft) SW22.5 220 0 min 26,0 klux 0,00 min 2,9 C -8,4 C
26.03.2009 12:59 3,7 C 3,5 C 94 % 1004 hPa 0,0 l/m 35,5 km/h (5 Bft) SW22.5 220 0 min 19,5 klux 0,00 min 2,8 C -9,5 C
26.03.2009 13:14 3,5 C 3,3 C 94 % 1004 hPa 0,0 l/m 32,9 km/h (5 Bft) SW22.5 220 0 min 19,5 klux 0,00 min 2,6 C -9,2 C
26.03.2009 13:30 3,4 C 3,2 C 95 % 1004 hPa 0,0 l/m 37,2 km/h (5 Bft) SW45 220 0 min 17,5 klux 0,00 min 2,7 C -10,3 C
26.03.2009 13:44 3,5 C 3,3 C 95 % 1004 hPa 0,0 l/m 33,2 km/h (5 Bft) SW45 225 0 min 21,9 klux 0,00 min 2,8 C -9,3 C
26.03.2009 13:59 3,5 C 3,3 C 95 % 1003 hPa 0,0 l/m 26,5 km/h (4 Bft) SW45 215 0 min 13,9 klux 0,00 min 2,8 C -7,5 C
26.03.2009 14:14 3,4 C 3,2 C 96 % 1003 hPa 0,0 l/m 34,9 km/h (5 Bft) SW22.5 235 0 min 13,6 klux 0,00 min 2,8 C -9,8 C
26.03.2009 14:29 3,4 C 3,3 C 96 % 1003 hPa 0,0 l/m 35,1 km/h (5 Bft) W-SW45 240 0 min 10,3 klux 0,00 min 2,8 C -9,9 C
26.03.2009 14:44 3,4 C 3,3 C 96 % 1003 hPa 0,0 l/m 45,7 km/h (6 Bft) W-SW22.5 250 0 min 10,0 klux 0,00 min 2,8 C -11,9 C
26.03.2009 14:59 3,5 C 3,3 C 96 % 1003 hPa 0,0 l/m 37,5 km/h (5 Bft) W-SW45 245 0 min 13,2 klux 0,00 min 2,9 C -10,3 C
26.03.2009 15:15 3,5 C 3,3 C 96 % 1003 hPa 0,0 l/m 36,2 km/h (5 Bft) SW45 235 0 min 10,8 klux 0,00 min 2,9 C -10,0 C
26.03.2009 15:14 3,5 C 3,3 C 96 % 1003 hPa 0,0 l/m 36,2 km/h (5 Bft) SW45 235 0 min 10,8 klux 0,00 min 2,9 C -10,0 C
26.03.2009 15:29 3,5 C 3,3 C 96 % 1003 hPa 1,2 l/m 30,8 km/h (5 Bft) SW45 235 0 min 14,0 klux 15,00 min 2,9 C -8,7 C
26.03.2009 15:44 3,6 C 3,3 C 96 % 1003 hPa 0,0 l/m 34,6 km/h (5 Bft) W-SW45 240 0 min 11,2 klux 0,00 min 3,0 C -9,5 C
26.03.2009 15:59 3,7 C 3,3 C 96 % 1002 hPa 0,6 l/m 41,2 km/h (6 Bft) W-SW45 250 0 min 17,4 klux 15,00 min 3,1 C -10,7 C
26.03.2009 16:14 3,7 C 3,3 C 96 % 1002 hPa 0,0 l/m 42,4 km/h (6 Bft) W-SW22.5 250 0 min 12,6 klux 0,00 min 3,1 C -10,9 C
26.03.2009 16:30 3,6 C 3,4 C 96 % 1002 hPa 0,0 l/m 54,0 km/h (7 Bft) W-SW45 245 0 min 18,2 klux 0,00 min 3,0 C -12,6 C
26.03.2009 16:44 3,5 C 3,4 C 96 % 1002 hPa 0,6 l/m 40,3 km/h (6 Bft) W45 260 0 min 12,5 klux 14,00 min 2,9 C -10,8 C
26.03.2009 16:59 3,5 C 3,4 C 97 % 1001 hPa 0,3 l/m 33,8 km/h (5 Bft) SW45 235 0 min 7,87 klux 15,00 min 3,1 C -9,4 C
26.03.2009 17:14 3,4 C 3,2 C 97 % 1001 hPa 0,3 l/m 48,2 km/h (6 Bft) W-SW22.5 240 0 min 6,68 klux 15,00 min 3,0 C -12,2 C
26.03.2009 17:29 3,5 C 3,3 C 97 % 1001 hPa 0,0 l/m 38,1 km/h (5 Bft) SW45 235 0 min 7,12 klux 0,00 min 3,1 C -10,4 C
26.03.2009 17:44 3,5 C 3,3 C 98 % 1001 hPa 0,3 l/m 47,3 km/h (6 Bft) W-SW45 240 0 min 4,92 klux 15,00 min 3,2 C -11,9 C
26.03.2009 17:59 3,4 C 3,3 C 98 % 1001 hPa 0,3 l/m 40,8 km/h (6 Bft) W-SW45 240 0 min 1,96 klux 15,00 min 3,1 C -11,0 C
26.03.2009 18:15 3,4 C 3,3 C 99 % 1001 hPa 0,0 l/m 38,1 km/h (5 Bft) SW67.5 230 0 min 2,49 klux 0,00 min 3,3 C -10,5 C
26.03.2009 18:29 3,4 C 3,3 C 99 % 1001 hPa 0,0 l/m 50,9 km/h (7 Bft) W-SW45 240 0 min 1,00 klux 0,00 min 3,3 C -12,6 C
26.03.2009 18:44 3,4 C 3,3 C 99 % 1000 hPa 0,3 l/m 46,3 km/h (6 Bft) W-SW22.5 245 0 min 601 lux 15,00 min 3,3 C -11,9 C
26.03.2009 18:59 3,5 C 3,4 C 99 % 1000 hPa 0,0 l/m 37,9 km/h (5 Bft) W-SW67.5 245 0 min 234 lux 0,00 min 3,4 C -10,3 C
26.03.2009 19:14 3,6 C 3,5 C 99 % 1000 hPa 0,0 l/m 39,2 km/h (6 Bft) W-SW22.5 250 0 min 96 lux 0,00 min 3,5 C -10,4 C
26.03.2009 19:29 3,6 C 3,6 C 99 % 1000 hPa 0,0 l/m 37,7 km/h (5 Bft) W-SW45 250 0 min 15 lux 0,00 min 3,5 C -10,2 C
26.03.2009 19:45 3,7 C 3,7 C 99 % 1000 hPa 0,0 l/m 45,6 km/h (6 Bft) W-SW22.5 245 0 min 0 lux 0,00 min 3,6 C -11,4 C
26.03.2009 19:59 3,8 C 3,7 C 99 % 1000 hPa 0,0 l/m 40,1 km/h (6 Bft) W-SW22.5 245 0 min 0 lux 0,00 min 3,7 C -10,3 C
26.03.2009 20:14 3,9 C 3,7 C 99 % 1000 hPa 0,0 l/m 37,3 km/h (5 Bft) W-SW22.5 250 0 min 0 lux 0,00 min 3,8 C -9,6 C
26.03.2009 20:29 3,9 C 3,9 C 99 % 1000 hPa 0,0 l/m 41,1 km/h (6 Bft) W-SW22.5 255 0 min 0 lux 0,00 min 3,8 C -10,3 C
26.03.2009 20:44 4,0 C 3,9 C 99 % 1000 hPa 0,0 l/m 38,9 km/h (6 Bft) W-SW45 240 0 min 0 lux 0,00 min 3,9 C -9,8 C
26.03.2009 20:59 4,0 C 4,0 C 99 % 1000 hPa 0,0 l/m 38,4 km/h (5 Bft) W-SW45 240 0 min 0 lux 0,00 min 3,9 C -9,7 C
26.03.2009 21:14 4,1 C 4,1 C 99 % 1000 hPa 0,3 l/m 42,2 km/h (6 Bft) W-SW22.5 245 0 min 0 lux 15,00 min 4,0 C -10,2 C
26.03.2009 21:30 4,2 C 4,1 C 99 % 1000 hPa 0,0 l/m 35,8 km/h (5 Bft) W-SW45 245 0 min 0 lux 0,00 min 4,1 C -8,9 C
26.03.2009 21:44 4,3 C 4,3 C 99 % 1000 hPa 0,0 l/m 50,0 km/h (6 Bft) W-SW22.5 245 0 min 0 lux 0,00 min 4,2 C -11,1 C
26.03.2009 21:59 4,3 C 4,4 C 99 % 1000 hPa 0,0 l/m 45,3 km/h (6 Bft) W-SW45 250 0 min 0 lux 0,00 min 4,2 C -10,4 C
26.03.2009 22:14 4,4 C 4,5 C 99 % 1000 hPa 0,0 l/m 45,7 km/h (6 Bft) W-SW45 250 0 min 0 lux 0,00 min 4,3 C -10,3 C
26.03.2009 22:29 4,5 C 4,5 C 99 % 1000 hPa 0,3 l/m 44,7 km/h (6 Bft) W-SW45 245 0 min 0 lux 15,00 min 4,4 C -10,0 C
26.03.2009 22:44 4,5 C 4,6 C 99 % 1000 hPa 0,0 l/m 42,5 km/h (6 Bft) W-SW22.5 245 0 min 0 lux 0,00 min 4,4 C -9,7 C
26.03.2009 22:59 4,6 C 4,7 C 99 % 1000 hPa 0,0 l/m 40,0 km/h (6 Bft) SW45 235 0 min 0 lux 0,00 min 4,5 C -9,1 C
26.03.2009 23:15 4,6 C 4,7 C 99 % 1000 hPa 0,0 l/m 35,1 km/h (5 Bft) W-SW22.5 245 0 min 0 lux 0,00 min 4,5 C -8,2 C
26.03.2009 23:29 4,7 C 4,9 C 99 % 999 hPa 0,0 l/m 39,0 km/h (6 Bft) W-SW22.5 250 0 min 0 lux 0,00 min 4,6 C -8,8 C
26.03.2009 23:44 4,7 C 5,0 C 99 % 1000 hPa 0,0 l/m 30,5 km/h (5 Bft) W-SW45 240 0 min 0 lux 0,00 min 4,6 C -6,9 C
26.03.2009 23:59 4,7 C 4,9 C 99 % 1000 hPa 0,0 l/m 35,4 km/h (5 Bft) W-SW22.5 240 0 min 0 lux 0,00 min 4,6 C -8,1 C
_ Min-Zeit 04:08 04:08 11:59 23:29 - 04:08 - - - - - 04:08 16:30
Minimum _ 0,6 C 0,5 C 93 % 999 hPa - 11,6 km/h (2 Bft) - - - - - 0,2 C -12,6 C
_ Max-Zeit 23:29 23:44 06:38 08:44 15:29 16:30 - - 00:09 11:29 12:29 23:29 04:08
Maximum _ 4,7 C 5,0 C 99 % 1006 hPa 1,2 l/m 54,0 km/h
W-SW (7 Bft)
- - 0 min 34,1 klux 15,00 min 4,6 C -4,0 C
Durchschnitt _ 2,8 C 2,8 C 97 % 1003 hPa #4,8 l/m 30,1 km/h (5 Bft) W-SW - #0 min. 7,55 klux #2:44 h 2,4 C -8,7 C